Location: Nebraska Star Party
(42.6000°N, 100.8833°W)
Time: 02:53:36
(UTC-05:00)

Amateur Radio Satellites - All Passes

Search period start: 28 May 2015 02:23
Search period end: 29 May 2015 02:23
Location: Nebraska Star Party, 42.6000°N, 100.8833°W

Satellite Date Start Highest point End Downlink Frequencies (MHz)
Time Altitude Azimuth
DANDE 28 May 02:39:47 02:45:40 24° 278° (W) 02:50:27 436.750
Oscar 19 28 May 02:46:04 02:50:53 39° 97° (E) 02:55:41 437.125/150
GONETS M04 28 May 02:50:18 02:57:59 34° 275° (W) 03:05:24
BEESAT 3 28 May 02:53:24 02:57:06 32° 48° (NE) 03:00:46 437.485
O/OREOS (USA 219) 28 May 02:56:47 03:01:02 42° 253° (WSW) 03:05:14 437.305
STARS 28 May 03:03:04 03:06:16 20° 66° (ENE) 03:09:34 437.465
ITAMSAT 1 28 May 03:03:35 03:06:50 17° 90° (E) 03:10:17 435.822/435.867
VERMONT LUNAR 28 May 03:25:33 03:28:38 41° 166° (SSE) 03:31:41 437.305
Cosmos 2499 28 May 03:25:50 03:32:56 89° 267° (W) 03:40:08 435.465 / 435.565
KKS-1 28 May 03:36:32 03:40:59 69° 75° (ENE) 03:45:29 437.445
AIST 2 28 May 03:40:47 03:44:21 26° 45° (NE) 03:47:55 435.215
ISS 28 May 03:42:26 03:44:38 17° 2° (N) 03:46:51 145.825
BEESAT 2 28 May 03:43:28 03:47:37 81° 56° (NE) 03:51:40 435.950
ITUPSAT 1 28 May 03:45:46 03:49:19 20° 268° (W) 03:52:46 437.325
Gurwin Techsat 1B 28 May 03:46:37 03:51:37 41° 97° (E) 03:56:38 435.225
BEESAT 28 May 03:53:15 03:56:23 17° 270° (W) 03:59:22 436.000
PCSat 28 May 03:55:51 03:59:11 16° 323° (NW) 04:02:22 145.827
SO-50 28 May 04:02:45 04:07:24 69° 121° (ESE) 04:12:14 436.795
SWISSCUBE 28 May 04:03:07 04:05:17 13° 272° (W) 04:07:11 437.505
PHONESAT 2.4 28 May 04:07:44 04:10:54 32° 161° (SSE) 04:14:04 2401.200-2431.200
AO-7 28 May 04:10:39 04:14:47 15° 86° (E) 04:19:29 29.400- 29.500
HORYU 2 28 May 04:21:47 04:23:52 13° 89° (E) 04:26:10 437.375
Oscar 19 28 May 04:25:46 04:30:05 27° 294° (WNW) 04:34:19 437.125/150
BEESAT 3 28 May 04:31:33 04:34:58 25° 246° (WSW) 04:38:17 437.485
STARS 28 May 04:38:14 04:42:27 42° 262° (W) 04:46:42 437.465
ITAMSAT 1 28 May 04:41:40 04:46:50 62° 288° (WNW) 04:51:59 435.822/435.867
VERMONT LUNAR 28 May 05:02:28 05:05:38 59° 183° (S) 05:08:47 437.305
JAS-2 28 May 05:04:59 05:09:47 38° 97° (E) 05:14:46 435.910
MOZHAYETS 4 28 May 05:14:00 05:18:30 58° 73° (ENE) 05:23:00
KKS-1 28 May 05:16:28 05:18:12 12° 272° (W) 05:19:40 437.445
ISS 28 May 05:18:50 05:21:47 31° 22° (NNE) 05:24:45 145.825
AIST 2 28 May 05:19:07 05:23:01 36° 244° (WSW) 05:26:49 435.215
Cosmos 2499 28 May 05:21:34 05:25:09 14° 280° (W) 05:28:20 435.465 / 435.565
Gurwin Techsat 1B 28 May 05:26:59 05:31:27 27° 294° (WNW) 05:35:49 435.225
SO-50 28 May 05:44:51 05:48:28 21° 321° (NW) 05:52:06 436.795
PHONESAT 2.4 28 May 05:45:20 05:48:46 61° 178° (S) 05:52:12 2401.200-2431.200
HORYU 2 28 May 05:56:36 06:00:58 58° 287° (WNW) 06:05:17 437.375
AO-7 28 May 06:00:42 06:09:07 78° 106° (ESE) 06:17:31 29.400- 29.500
Cosmos 2491 28 May 06:37:55 06:46:01 39° 70° (ENE) 06:54:09 435.465 / 435.565
VERMONT LUNAR 28 May 06:39:43 06:42:34 30° 199° (SSW) 06:45:25 437.305
JAS-2 28 May 06:50:33 06:54:51 26° 294° (WNW) 06:59:08 435.910
MOZHAYETS 4 28 May 06:53:38 06:56:10 14° 271° (W) 06:58:30
ISS 28 May 06:55:09 06:58:17 43° 220° (SW) 07:01:23 145.825
CUBESAT XI-V 28 May 06:56:12 07:00:41 56° 73° (ENE) 07:05:14 437.345
CUTE-I 28 May 07:04:15 07:08:06 20° 91° (E) 07:12:07 437.470
STRAND 1 28 May 07:07:52 07:12:25 35° 68° (ENE) 07:17:03 437.568
PHONESAT 2.4 28 May 07:23:23 07:26:42 43° 194° (SSW) 07:30:00 2401.200-2431.200
Cubesat XI-IV 28 May 07:24:39 07:29:22 31° 95° (E) 07:34:10 437.490
YUBILEINY 28 May 07:30:26 07:37:51 34° 85° (E) 07:45:27 435.215
PRISM 28 May 07:46:04 07:50:09 90° 220° (SW) 07:54:16 437.425
AO-7 28 May 07:54:30 08:01:12 27° 305° (NW) 08:07:42 29.400- 29.500
M-CUBED/EXP-1 PRIME 28 May 08:00:50 08:05:03 89° 250° (WSW) 08:08:55 437.505
AUBIESAT-1 28 May 08:07:45 08:11:55 86° 252° (WSW) 08:15:45 437.475
AIST 1 28 May 08:11:24 08:15:30 38° 76° (ENE) 08:19:37
Cosmos 2491 28 May 08:34:44 08:43:07 48° 271° (W) 08:51:21 435.465 / 435.565
CUBESAT XI-V 28 May 08:35:50 08:38:34 15° 271° (W) 08:41:07 437.345
GOMX 1 28 May 08:43:04 08:44:29 11° 83° (E) 08:46:14 467.674
CUTE-I 28 May 08:43:20 08:48:34 54° 289° (WNW) 08:53:46 437.470
BRITE-PL 28 May 08:45:25 08:49:30 21° 88° (E) 08:53:37 437.365/2234.400
STRAND 1 28 May 08:47:14 08:51:40 29° 265° (W) 08:56:05 437.568
HO-68 28 May 09:01:32 09:05:29 16° 87° (E) 09:09:50 435.675
PHONESAT 2.4 28 May 09:02:17 09:04:21 15° 209° (SSW) 09:06:20 2401.200-2431.200
Cubesat XI-IV 28 May 09:04:39 09:09:31 35° 292° (WNW) 09:14:19 437.490
RS-15 28 May 09:06:42 09:16:32 43° 110° (ESE) 09:26:46 29.354- 29.394
PCSat 28 May 09:14:12 09:17:53 19° 40° (NE) 09:21:42 145.827
YUBILEINY 28 May 09:25:46 09:34:21 55° 285° (WNW) 09:42:53 435.215
CANX-2 28 May 09:33:36 09:36:41 20° 92° (E) 09:39:51 2200.000
DOVE 4 28 May 09:35:04 09:39:03 23° 90° (E) 09:42:57 437.250
CUTE 1.7 + AOD 2 28 May 09:36:58 09:40:00 20° 92° (E) 09:43:09 437.475
Cosmos 2504 28 May 09:47:12 09:53:17 25° 84° (E) 09:59:22 435.465 / 435.565
AIST 1 28 May 09:49:46 09:52:54 19° 272° (W) 09:55:55
SEEDS 28 May 09:56:58 10:00:30 26° 95° (E) 10:04:04 437.485
COMPASS 1 28 May 10:07:51 10:11:26 28° 95° (E) 10:15:03 437.405
GOMX 1 28 May 10:18:07 10:23:33 89° 298° (WNW) 10:28:38 467.674
AAUSAT CUBESAT 2 28 May 10:18:40 10:22:22 31° 96° (E) 10:26:05 437.432
TIGRISAT 28 May 10:21:01 10:24:06 18° 65° (ENE) 10:27:18 435.000
BRITE-PL 28 May 10:22:53 10:28:27 56° 288° (WNW) 10:33:42 437.365/2234.400
UWE-3 28 May 10:30:17 10:32:37 15° 88° (E) 10:35:06 435.000/436.395/437.385
POLYITAN 1 28 May 10:31:58 10:32:11 10° 61° (ENE) 10:32:38 437.675
FUNcube-1 28 May 10:36:46 10:38:37 13° 88° (E) 10:40:39 145.935
DELFI C3 28 May 10:37:04 10:39:34 16° 91° (E) 10:42:12 145.870
CINEMA 3 28 May 10:39:19 10:43:53 47° 98° (E) 10:48:14 145.822/145.860
UNISAT 6 28 May 10:41:05 10:45:04 29° 69° (ENE) 10:49:04 437.425
HO-68 28 May 10:47:06 10:54:19 90° 103° (ESE) 11:01:28 435.675
SO-50 28 May 10:54:16 10:57:08 15° 34° (NNE) 11:00:07 436.795
PCSat 28 May 10:56:37 11:02:05 85° 241° (WSW) 11:07:30 145.827
NANOSAT C BR1 28 May 10:57:02 10:59:55 18° 66° (ENE) 11:02:56 145.865
HUMSAT D 28 May 11:01:21 11:01:38 10° 87° (E) 11:02:11 437.325/437.525
QB50P2 28 May 11:05:39 11:09:00 23° 67° (ENE) 11:12:27 145.880/145.840
CANX-2 28 May 11:08:53 11:12:45 35° 289° (WNW) 11:16:34 2200.000
CUTE 1.7 + AOD 2 28 May 11:12:12 11:16:04 35° 289° (WNW) 11:19:54 437.475
DOVE 4 28 May 11:12:12 11:17:02 42° 290° (WNW) 11:21:33 437.250
UKube-1 28 May 11:16:05 11:18:37 15° 90° (E) 11:21:19 .
ZACube-1 28 May 11:16:20 11:20:19 36° 96° (E) 11:24:14 437.345
POPSAT HIP 1 28 May 11:17:08 11:20:50 29° 69° (ENE) 11:24:36 437.405
DUCHIFAT 1 28 May 11:17:51 11:21:31 29° 69° (ENE) 11:25:15 145.980
RS-15 28 May 11:17:53 11:28:39 59° 313° (NW) 11:39:44 29.354- 29.394
CUBEBUG 2 28 May 11:21:00 11:25:27 66° 101° (ESE) 11:29:43 437.445
ANTELSAT 28 May 11:23:39 11:28:21 77° 74° (ENE) 11:32:59 437.575/2403.000
Oscar 11 28 May 11:25:09 11:29:29 81° 102° (ESE) 11:33:46 145.826/435.025
DX 1 28 May 11:26:25 11:29:47 22° 93° (E) 11:33:15 434.975-435.025
YUBILEINY 28 May 11:31:36 11:33:49 11° 310° (NW) 11:35:22 435.215
SEEDS 28 May 11:32:44 11:36:15 26° 291° (WNW) 11:39:43 437.485
BUGSAT 1 28 May 11:34:11 11:37:47 29° 69° (ENE) 11:41:30 437.445
50 SAT 28 May 11:35:25 11:37:16 13° 90° (E) 11:39:17 437.505
Cosmos 2504 28 May 11:37:53 11:46:11 68° 281° (W) 11:53:53 435.465 / 435.565
COMPASS 1 28 May 11:43:37 11:47:03 25° 291° (WNW) 11:50:23 437.405
VELOX 1 28 May 11:46:35 11:49:40 19° 91° (E) 11:52:52 145.980
AAUSAT CUBESAT 2 28 May 11:54:35 11:57:50 22° 292° (WNW) 12:00:59 437.432
ESTCUBE 1 28 May 11:55:55 11:58:15 14° 89° (E) 12:00:47 437.505/2401.250
TIGRISAT 28 May 11:55:55 12:00:31 51° 261° (W) 12:05:02 435.000
GOMX 1 28 May 11:58:17 12:00:52 13° 301° (WNW) 12:03:10 467.674
QB50P1 28 May 12:00:20 12:04:37 87° 77° (ENE) 12:08:56 145.935-145.965
POLYITAN 1 28 May 12:03:09 12:07:29 86° 257° (WSW) 12:11:50 437.675
UWE-3 28 May 12:05:18 12:09:34 51° 287° (WNW) 12:13:42 435.000/436.395/437.385
GONETS M04 28 May 12:06:52 12:07:40 10° 73° (ENE) 12:09:15
DELFI C3 28 May 12:11:07 12:14:53 39° 288° (WNW) 12:18:38 145.870
FUNcube-1 28 May 12:11:11 12:15:26 56° 286° (WNW) 12:19:33 145.935
CINEMA 3 28 May 12:17:21 12:20:44 19° 295° (WNW) 12:23:51 145.822/145.860
UNISAT 6 28 May 12:17:38 12:21:47 30° 265° (W) 12:25:52 437.425
AISAT 28 May 12:17:58 12:22:13 41° 98° (E) 12:26:27 437.250
DANDE 28 May 12:25:31 12:29:15 15° 77° (ENE) 12:33:44 436.750
NANOSAT C BR1 28 May 12:31:23 12:35:29 43° 262° (W) 12:39:35 145.865
SO-50 28 May 12:33:36 12:38:36 74° 56° (NE) 12:43:30 436.795
HUMSAT D 28 May 12:33:48 12:37:57 67° 285° (WNW) 12:42:01 437.325/437.525
HO-68 28 May 12:36:19 12:41:13 20° 305° (NW) 12:45:52 435.675
QB50P2 28 May 12:40:50 12:44:45 33° 264° (W) 12:48:39 145.880/145.840
PCSat 28 May 12:43:00 12:44:46 11° 256° (WSW) 12:46:13 145.827
CUSAT 1 28 May 12:43:38 12:49:38 27° 84° (E) 12:56:21 437.405
UKube-1 28 May 12:50:52 12:55:06 49° 288° (WNW) 12:59:17 .
POPSAT HIP 1 28 May 12:53:05 12:56:42 25° 266° (W) 13:00:17 437.405
ZACube-1 28 May 12:53:11 12:56:29 21° 293° (WNW) 12:59:37 437.345
DUCHIFAT 1 28 May 12:53:43 12:57:20 26° 266° (W) 13:00:53 145.980
CUBEBUG 2 28 May 12:59:25 13:01:36 13° 298° (WNW) 13:03:34 437.445
DX 1 28 May 13:02:07 13:06:09 35° 290° (WNW) 13:10:08 434.975-435.025
Oscar 11 28 May 13:04:07 13:05:05 10° 298° (WNW) 13:05:48 145.826/435.025
ANTELSAT 28 May 13:04:14 13:05:44 11° 273° (W) 13:06:57 437.575/2403.000
50 SAT 28 May 13:08:35 13:12:17 44° 287° (WNW) 13:15:57 437.505
BUGSAT 1 28 May 13:09:51 13:13:17 24° 266° (W) 13:16:41 437.445
CUBEBUG 1 28 May 13:15:37 13:20:07 86° 103° (ESE) 13:24:34 437.445
VELOX 1 28 May 13:22:12 13:26:28 43° 289° (WNW) 13:30:42 145.980
ESTCUBE 1 28 May 13:31:05 13:35:34 58° 286° (WNW) 13:40:00 437.505/2401.250
RS-15 28 May 13:35:15 13:44:10 26° 344° (NNW) 13:53:14 29.354- 29.394
Cosmos 2504 28 May 13:37:37 13:41:16 13° 303° (WNW) 13:44:20 435.465 / 435.565
SPROUT 28 May 13:48:25 13:52:41 55° 100° (E) 13:56:55 437.525
GONETS M04 28 May 13:54:15 14:02:51 61° 92° (E) 14:11:32
AISAT 28 May 13:55:09 13:58:33 21° 294° (WNW) 14:01:50 437.250
Oscar 19 28 May 14:03:24 14:08:30 61° 73° (ENE) 14:13:40 437.125/150
DANDE 28 May 14:03:46 14:11:02 74° 96° (E) 14:19:34 436.750
TISAT 1 28 May 14:05:26 14:09:41 61° 101° (E) 14:13:54 437.305
ITUPSAT 1 28 May 14:09:19 14:10:09 11° 86° (E) 14:11:17 437.325
BEESAT 28 May 14:14:56 14:16:55 13° 88° (E) 14:19:11 436.000
Cosmos 2499 28 May 14:15:24 14:18:07 13° 79° (E) 14:21:19 435.465 / 435.565
SO-50 28 May 14:15:47 14:18:36 15° 251° (WSW) 14:21:10 436.795
ITAMSAT 1 28 May 14:21:57 14:26:17 28° 66° (ENE) 14:30:43 435.822/435.867
SWISSCUBE 28 May 14:22:51 14:25:54 17° 91° (E) 14:29:06 437.505
CUSAT 1 28 May 14:24:08 14:31:40 70° 284° (WNW) 14:40:02 437.405
CUBEBUG 1 28 May 14:54:47 14:55:52 11° 299° (WNW) 14:56:42 437.445
Gurwin Techsat 1B 28 May 15:08:19 15:13:34 69° 74° (ENE) 15:18:53 435.225
AO-7 28 May 15:10:03 15:16:27 27° 54° (NE) 15:23:06 29.400- 29.500
JAS-2 28 May 15:18:55 15:23:25 21° 64° (ENE) 15:27:46 435.910
HORYU 2 28 May 15:20:57 15:23:28 15° 64° (ENE) 15:26:09 437.375
SPROUT 28 May 15:25:48 15:28:22 15° 296° (WNW) 15:30:46 437.525
KKS-1 28 May 15:28:54 15:30:47 13° 88° (E) 15:32:52 437.445
O/OREOS (USA 219) 28 May 15:31:35 15:34:45 19° 102° (ESE) 15:38:02 437.305
TISAT 1 28 May 15:42:49 15:45:00 14° 297° (WNW) 15:47:01 437.305
ITUPSAT 1 28 May 15:43:57 15:48:46 83° 283° (WNW) 15:53:34 437.325
Oscar 19 28 May 15:44:56 15:48:22 17° 271° (W) 15:51:35 437.125/150
DANDE 28 May 15:48:49 15:55:16 27° 299° (WNW) 16:02:09 436.750
BEESAT 28 May 15:50:35 15:55:22 70° 286° (WNW) 16:00:06 436.000
RS-15 28 May 15:52:22 16:01:32 27° 19° (NNE) 16:11:12 29.354- 29.394
GONETS M04 28 May 15:52:35 16:00:20 32° 294° (WNW) 16:07:54
SWISSCUBE 28 May 15:59:28 16:04:08 53° 288° (WNW) 16:08:46 437.505
ITAMSAT 1 28 May 16:00:53 16:05:40 37° 263° (W) 16:10:28 435.822/435.867
Cosmos 2499 28 May 16:02:13 16:10:16 75° 96° (E) 16:17:46 435.465 / 435.565
CUSAT 1 28 May 16:11:11 16:16:10 17° 306° (NW) 16:20:53 437.405
STARS 28 May 16:27:16 16:31:15 33° 96° (E) 16:35:15 437.465
Gurwin Techsat 1B 28 May 16:50:58 16:54:10 15° 272° (W) 16:57:07 435.225
HORYU 2 28 May 16:55:17 16:59:42 58° 259° (W) 17:04:08 437.375
AO-7 28 May 17:00:14 17:08:32 78° 254° (WSW) 17:16:55 29.400- 29.500
JAS-2 28 May 17:01:38 17:08:14 65° 258° (WSW) 17:14:04 435.910
KKS-1 28 May 17:03:28 17:07:55 63° 286° (WNW) 17:12:19 437.445
O/OREOS (USA 219) 28 May 17:09:37 17:13:54 42° 299° (WNW) 17:18:11 437.305
MOZHAYETS 4 28 May 17:10:08 17:12:11 13° 88° (E) 17:14:27
ITUPSAT 1 28 May 17:24:56 17:25:58 10° 301° (WNW) 17:26:44 437.325
YUBILEINY 28 May 17:39:50 17:44:50 17° 57° (ENE) 17:50:16 435.215
BEESAT 2 28 May 17:40:03 17:41:45 13° 110° (ESE) 17:43:39 435.950
Cosmos 2499 28 May 17:58:13 18:04:14 22° 295° (WNW) 18:09:42 435.465 / 435.565
STARS 28 May 18:03:57 18:07:34 24° 293° (WNW) 18:11:06 437.465
RS-15 28 May 18:05:31 18:16:58 62° 48° (NE) 18:28:56 29.354- 29.394
BEESAT 3 28 May 18:24:10 18:28:03 45° 118° (ESE) 18:32:01 437.485
CUTE-I 28 May 18:26:33 18:31:20 36° 68° (ENE) 18:36:12 437.470
MOZHAYETS 4 28 May 18:45:23 18:49:55 63° 286° (WNW) 18:54:26
Cubesat XI-IV 28 May 18:47:17 18:52:26 55° 72° (ENE) 18:57:40 437.490
CUBESAT XI-V 28 May 18:53:44 18:56:01 14° 88° (E) 18:58:32 437.345
AO-7 28 May 18:58:15 19:02:53 15° 275° (W) 19:06:57 29.400- 29.500
BEESAT 2 28 May 19:15:17 19:19:22 65° 306° (NW) 19:23:30 435.950
AIST 2 28 May 19:17:15 19:21:11 39° 117° (ESE) 19:25:12 435.215
STRAND 1 28 May 19:20:34 19:21:10 10° 86° (E) 19:22:06 437.568
PRISM 28 May 19:29:40 19:31:09 12° 89° (E) 19:32:51 437.425
HO-68 28 May 19:32:32 19:36:16 16° 52° (NE) 19:40:18 435.675
YUBILEINY 28 May 19:34:43 19:43:28 79° 80° (E) 19:52:11 435.215
Cosmos 2491 28 May 19:39:58 19:48:00 43° 88° (E) 19:56:14 435.465 / 435.565
GOMX 1 28 May 19:50:57 19:53:49 15° 61° (ENE) 19:56:57 467.674
BRITE-PL 28 May 19:56:30 20:00:40 25° 65° (ENE) 20:05:09 437.365/2234.400
BEESAT 3 28 May 20:03:04 20:06:16 21° 317° (NW) 20:09:26 437.485
CUTE-I 28 May 20:06:49 20:11:29 30° 265° (W) 20:16:07 437.470
RS-15 28 May 20:18:24 20:29:10 43° 250° (WSW) 20:40:06 29.354- 29.394
CANX-2 28 May 20:27:51 20:30:34 17° 66° (ENE) 20:33:25 2200.000
Cubesat XI-IV 28 May 20:29:06 20:32:58 20° 269° (W) 20:36:40 437.490
CUBESAT XI-V 28 May 20:29:18 20:33:58 64° 285° (WNW) 20:38:37 437.345
CUTE 1.7 + AOD 2 28 May 20:31:09 20:33:50 17° 66° (ENE) 20:36:37 437.475
DOVE 4 28 May 20:40:41 20:44:59 28° 67° (ENE) 20:49:29 437.250
AIST 1 28 May 20:42:23 20:45:35 21° 89° (E) 20:48:53
SEEDS 28 May 20:50:07 20:53:17 22° 68° (ENE) 20:56:34 437.485
STRAND 1 28 May 20:56:02 21:01:13 88° 104° (ESE) 21:06:23 437.568
AIST 2 28 May 20:56:17 20:59:54 25° 315° (NW) 21:03:29 435.215
BEESAT 2 28 May 20:57:11 20:58:20 11° 326° (NW) 20:59:20 435.950
COMPASS 1 28 May 21:00:09 21:03:22 22° 68° (ENE) 21:06:39 437.405
PRISM 28 May 21:02:56 21:07:03 59° 286° (WNW) 21:11:09 437.425
AAUSAT CUBESAT 2 28 May 21:10:26 21:13:47 24° 69° (ENE) 21:17:13 437.432
HO-68 28 May 21:15:47 21:22:55 73° 71° (ENE) 21:30:06 435.675
M-CUBED/EXP-1 PRIME 28 May 21:16:08 21:19:24 56° 106° (ESE) 21:22:41 437.505
AUBIESAT-1 28 May 21:22:23 21:25:39 58° 106° (ESE) 21:28:57 437.475
GOMX 1 28 May 21:26:01 21:31:14 82° 258° (WSW) 21:36:44 467.674
DELFI C3 28 May 21:26:27 21:27:59 12° 64° (ENE) 21:29:43 145.870
UWE-3 28 May 21:28:08 21:30:53 16° 64° (ENE) 21:33:47 435.000/436.395/437.385
Cosmos 2504 28 May 21:29:42 21:36:29 43° 73° (ENE) 21:43:19 435.465 / 435.565
YUBILEINY 28 May 21:33:05 21:39:26 22° 279° (W) 21:45:23 435.215
FUNcube-1 28 May 21:33:26 21:35:37 14° 64° (ENE) 21:38:00 145.935
BRITE-PL 28 May 21:33:53 21:38:52 47° 263° (W) 21:44:11 437.365/2234.400
Cosmos 2491 28 May 21:36:36 21:44:56 44° 289° (WNW) 21:53:14 435.465 / 435.565
CINEMA 3 28 May 21:40:54 21:45:43 49° 72° (ENE) 21:50:35 145.822/145.860
CANX-2 28 May 22:02:05 22:06:12 45° 262° (W) 22:10:17 2200.000
CUTE 1.7 + AOD 2 28 May 22:05:19 22:09:26 46° 262° (W) 22:13:32 437.475
UKube-1 28 May 22:12:05 22:14:36 16° 64° (ENE) 22:17:18 .
ZACube-1 28 May 22:12:40 22:16:46 33° 70° (ENE) 22:20:54 437.345
DOVE 4 28 May 22:17:40 22:22:32 40° 264° (W) 22:27:32 437.250
CUBEBUG 2 28 May 22:19:11 22:23:53 61° 74° (ENE) 22:28:35 437.445
AIST 1 28 May 22:19:15 22:23:04 31° 286° (WNW) 22:26:54
Oscar 11 28 May 22:20:20 22:24:38 68° 75° (ENE) 22:28:56 145.826/435.025
DX 1 28 May 22:22:58 22:26:15 22° 66° (ENE) 22:29:39 434.975-435.025
SEEDS 28 May 22:25:05 22:28:56 33° 264° (W) 22:32:46 437.485
COMPASS 1 28 May 22:35:07 22:38:54 32° 264° (W) 22:42:39 437.405
STRAND 1 28 May 22:37:20 22:39:46 13° 300° (WNW) 22:41:59 437.568
VELOX 1 28 May 22:45:13 22:48:17 19° 65° (ENE) 22:51:30 145.980
AAUSAT CUBESAT 2 28 May 22:45:40 22:49:19 28° 265° (W) 22:52:55 437.432
ESTCUBE 1 28 May 22:56:41 22:59:13 15° 64° (ENE) 23:01:55 437.505/2401.250
DELFI C3 28 May 22:58:41 23:02:40 60° 260° (W) 23:06:39 145.870
UWE-3 28 May 23:02:20 23:06:59 60° 260° (W) 23:11:37 435.000/436.395/437.385
DANDE 28 May 23:05:37 23:08:53 13° 49° (NE) 23:12:18 436.750
HO-68 28 May 23:05:58 23:11:24 22° 270° (W) 23:16:34 435.675
FUNcube-1 28 May 23:06:53 23:11:27 69° 258° (WSW) 23:16:01 145.935
GOMX 1 28 May 23:09:35 23:10:23 10° 278° (W) 23:10:46 467.674
AISAT 28 May 23:16:21 23:20:31 40° 70° (ENE) 23:24:43 437.250
ANTELSAT 28 May 23:16:43 23:19:00 14° 89° (E) 23:21:29 437.575/2403.000
CINEMA 3 28 May 23:19:26 23:23:11 20° 270° (W) 23:26:50 145.822/145.860
CUSAT 1 28 May 23:22:24 23:27:12 19° 56° (ENE) 23:31:33 437.405
Cosmos 2504 28 May 23:23:24 23:29:44 34° 273° (W) 23:35:57 435.465 / 435.565
HUMSAT D 28 May 23:25:42 23:30:02 89° 257° (WSW) 23:34:21 437.325/437.525
ISS 28 May 23:34:34 23:37:34 36° 139° (SE) 23:40:37 145.825
UKube-1 28 May 23:46:08 23:50:22 53° 260° (W) 23:54:38 .
QB50P1 28 May 23:46:29 23:48:32 14° 89° (E) 23:50:47 145.935-145.965
TIGRISAT 28 May 23:47:25 23:51:14 30° 95° (E) 23:55:02 435.000
ZACube-1 28 May 23:49:20 23:53:10 25° 266° (W) 23:56:56 437.345
POLYITAN 1 28 May 23:49:24 23:51:46 15° 90° (E) 23:54:18 437.675
50 SAT 28 May 23:53:18 23:57:18 75° 258° (WSW) 00:01:18 437.505
CUBEBUG 2 28 May 23:58:12 00:01:02 15° 272° (W) 00:03:37 437.445
DX 1 28 May 23:58:16 00:02:18 36° 263° (W) 00:06:22 434.975-435.025
Oscar 11 28 May 23:59:59 00:01:22 11° 273° (W) 00:02:29 145.826/435.025
PCSat 29 May 00:01:20 00:01:25 10° 103° (ESE) 00:01:52 145.827
GONETS M04 29 May 00:04:02 00:11:31 31° 66° (ENE) 00:19:07
UNISAT 6 29 May 00:08:29 00:12:46 52° 99° (E) 00:16:59 437.425
CUBEBUG 1 29 May 00:12:13 00:16:34 78° 77° (ENE) 00:20:59 437.445
NANOSAT C BR1 29 May 00:15:46 00:19:27 28° 95° (E) 00:23:09 145.865
VELOX 1 29 May 00:20:19 00:24:34 44° 261° (W) 00:28:50 145.980
QB50P2 29 May 00:25:11 00:29:09 36° 97° (E) 00:33:07 145.880/145.840
ESTCUBE 1 29 May 00:31:16 00:35:40 58° 260° (W) 00:40:07 437.505/2401.250
POPSAT HIP 1 29 May 00:36:48 00:40:57 48° 99° (E) 00:45:05 437.405
DUCHIFAT 1 29 May 00:36:58 00:41:06 47° 99° (E) 00:45:12 145.980
SPROUT 29 May 00:43:06 00:47:14 46° 72° (ENE) 00:51:25 437.525
DANDE 29 May 00:46:32 00:54:18 64° 75° (ENE) 01:00:20 436.750
BUGSAT 1 29 May 00:50:29 00:54:36 46° 99° (E) 00:58:42 437.445
ANTELSAT 29 May 00:51:57 00:56:13 51° 287° (WNW) 01:00:23 437.575/2403.000
AISAT 29 May 00:53:57 00:57:17 20° 268° (W) 01:00:31 437.250
TISAT 1 29 May 00:58:05 01:02:10 49° 73° (ENE) 01:06:19 437.305
CUSAT 1 29 May 01:03:59 01:11:08 77° 263° (W) 01:16:32 437.405
ISS 29 May 01:11:00 01:14:00 33° 336° (NNW) 01:17:02 145.825
ITUPSAT 1 29 May 01:16:10 01:18:45 15° 62° (ENE) 01:21:31 437.325
QB50P1 29 May 01:20:36 01:24:49 54° 287° (WNW) 01:28:58 145.935-145.965
BEESAT 29 May 01:21:57 01:24:58 17° 63° (ENE) 01:28:08 436.000
POLYITAN 1 29 May 01:23:52 01:28:02 49° 287° (WNW) 01:32:08 437.675
TIGRISAT 29 May 01:24:17 01:27:54 25° 292° (WNW) 01:31:24 435.000
SWISSCUBE 29 May 01:30:09 01:33:44 22° 66° (ENE) 01:37:27 437.505
PCSat 29 May 01:38:39 01:44:03 79° 119° (ESE) 01:49:31 145.827
O/OREOS (USA 219) 29 May 01:39:28 01:43:44 42° 62° (ENE) 01:47:59 437.305
UNISAT 6 29 May 01:46:30 01:49:10 16° 296° (WNW) 01:51:39 437.425
NANOSAT C BR1 29 May 01:51:37 01:55:14 26° 292° (WNW) 01:58:45 145.865
Cosmos 2499 29 May 01:53:06 01:58:35 24° 66° (ENE) 02:04:18 435.465 / 435.565
BEESAT 2 29 May 01:57:09 01:59:18 14° 37° (NE) 02:01:32 435.950
GONETS M04 29 May 02:00:23 02:09:00 61° 268° (W) 02:17:29
QB50P2 29 May 02:01:36 02:04:51 21° 293° (WNW) 02:07:59 145.880/145.840
POPSAT HIP 1 29 May 02:13:42 02:16:29 17° 295° (WNW) 02:19:06 437.405
DUCHIFAT 1 29 May 02:13:47 02:16:34 17° 295° (WNW) 02:19:14 145.980
Oscar 19 29 May 02:15:11 02:18:52 20° 91° (E) 02:22:42 437.125/150
